Rochester/St. Mary\'s Hospita, MN

7:57 AM CST on December 10, 2019 (GMT -0600)
Rochester/St. Mary\'s Hospita

Weather History for K9MN - October, 2019

Change the Weather History Date:

Thursday, October 10, 2019

  Actual Average (KRST) Record (KRST)
Temperature  
Mean Temperature 56 °F -  
Max Temperature 61 °F 59 °F 85 °F (1930)
Min Temperature 51 °F 37 °F 22 °F (1987)
Degree Days  
Heating Degree Days 9    
Growing Degree Days 6 (Base 50)    
Moisture  
Dew Point 54 °F    
Average Humidity 93    
Maximum Humidity 100    
Minimum Humidity 57    
Precipitation  
Precipitation 0.20 in - - ()
Sea Level Pressure  
Sea Level Pressure 29.86 in    
Wind  
Wind Speed 11 mph (SE)    
Max Wind Speed 26 mph    
Max Gust Speed 36 mph    
Visibility 8 miles    
Events      
Averages and records for this station are not official NWS values.
T = Trace of Precipitation, MM = Missing Value Source: NWS Daily Summary

Daily Weather History Graph

Daily Weather History Graph

Search for Another Location

Airport or City:

Astronomy

Oct. 10, 2019 Rise Set
Actual Time 7:18 AM CDT 6:35 PM CDT
Civil Twilight 6:49 AM CDT 7:03 PM CDT
Nautical Twilight 6:15 AM CDT 7:37 PM CDT
Astronomical Twilight 5:42 AM CDT 8:10 PM CDT
Moon 5:45 PM CDT 3:52 AM CDT
Length of Visible Light 12h 14m
Length of Day
11h 16m
Waxing Gibbous, 91% of the Moon is Illuminated
Oct 10
Waxing Gibbous
Oct 13
Full
Oct 21
Last Quarter
Oct 27
New
Nov 4
First Quarter

Hourly Weather History & Observations

Time (CDT) Temp. Dew Point Humidity Pressure Visibility Wind Dir Wind Speed Gust Speed Precip Events Conditions
12:15 AM 59.9 °F 44.8 °F 57% 30.03 in 10.0 mi South 16.1 mph 29.9 mph N/A   Overcast
12:35 AM 57.0 °F 46.9 °F 69% 30.04 in 10.0 mi South 13.8 mph 31.1 mph N/A   Overcast
12:36 AM 56.8 °F 47.3 °F 70% 30.04 in 10.0 mi South 12.7 mph 31.1 mph N/A   Overcast
12:55 AM 54.0 °F 49.1 °F 84% 30.04 in 10.0 mi South 10.4 mph 23.0 mph 0.01 in   Overcast
1:35 AM 52.7 °F 50.0 °F 91% 30.04 in 10.0 mi SSE 5.8 mph 16.1 mph 0.04 in   Overcast
1:55 AM 52.2 °F 50.0 °F 92% 30.04 in 10.0 mi SE 6.9 mph - 0.06 in   Overcast
1:56 AM 52.0 °F 50.0 °F 93% 30.04 in 10.0 mi SE 6.9 mph - 0.06 in   Overcast
2:15 AM 52.0 °F 50.0 °F 93% 30.03 in 10.0 mi ESE 8.1 mph - N/A   Overcast
2:16 AM 52.0 °F 50.0 °F 93% 30.03 in 10.0 mi SE 6.9 mph - N/A   Overcast
2:35 AM 51.8 °F 50.0 °F 94% 30.02 in 10.0 mi ESE 9.2 mph - N/A   Overcast
2:55 AM 51.8 °F 50.0 °F 94% 30.01 in 10.0 mi SE 6.9 mph - N/A   Overcast
2:56 AM 51.8 °F 50.0 °F 94% 30.00 in 10.0 mi SE 5.8 mph - N/A   Overcast
3:15 AM 51.8 °F 50.2 °F 94% 29.99 in 10.0 mi ESE 6.9 mph - N/A   Overcast
3:16 AM 51.8 °F 50.2 °F 94% 29.99 in 10.0 mi ESE 6.9 mph - N/A   Overcast
3:35 AM 52.0 °F 50.4 °F 94% 29.98 in 10.0 mi ESE 8.1 mph - N/A   Overcast
3:55 AM 52.2 °F 50.2 °F 93% 29.96 in 10.0 mi ESE 10.4 mph - N/A   Overcast
4:15 AM 52.3 °F 50.0 °F 92% 29.96 in 10.0 mi ESE 10.4 mph - N/A   Overcast
4:16 AM 52.3 °F 50.0 °F 92% 29.96 in 10.0 mi ESE 10.4 mph - N/A   Overcast
4:35 AM 52.7 °F 50.2 °F 91% 29.96 in 10.0 mi ESE 10.4 mph - N/A   Overcast
4:36 AM 52.7 °F 50.2 °F 91% 29.96 in 10.0 mi ESE 10.4 mph - N/A   Overcast
4:55 AM 52.5 °F 50.9 °F 94% 29.96 in 5.0 mi ESE 8.1 mph - 0.02 in   Overcast
5:15 AM 52.7 °F 51.4 °F 95% 29.96 in 10.0 mi ESE 9.2 mph - N/A   Overcast
5:35 AM 52.7 °F 52.0 °F 97% 29.95 in 10.0 mi ESE 11.5 mph 16.1 mph 0.01 in   Overcast
5:36 AM 52.7 °F 52.0 °F 97% 29.95 in 10.0 mi ESE 10.4 mph 16.1 mph 0.01 in   Overcast
5:55 AM 52.7 °F 52.2 °F 98% 29.93 in 10.0 mi ESE 10.4 mph 16.1 mph 0.01 in   Overcast
5:56 AM 52.7 °F 52.2 °F 98% 29.93 in 10.0 mi ESE 10.4 mph - 0.01 in   Overcast
6:15 AM 52.7 °F 52.0 °F 97% 29.92 in 10.0 mi ESE 11.5 mph 16.1 mph N/A   Overcast
6:35 AM 52.9 °F 51.8 °F 96% 29.92 in 10.0 mi ESE 11.5 mph - N/A   Overcast
6:55 AM 53.1 °F 51.8 °F 95% 29.92 in 10.0 mi ESE 8.1 mph - N/A   Overcast
6:56 AM 53.1 °F 51.8 °F 95% 29.92 in 10.0 mi ESE 9.2 mph - N/A   Overcast
7:15 AM 53.1 °F 51.6 °F 95% 29.91 in 10.0 mi ESE 10.4 mph - N/A   Overcast
7:16 AM 53.1 °F 51.4 °F 94% 29.91 in 10.0 mi ESE 9.2 mph - N/A   Overcast
7:35 AM 53.4 °F 51.1 °F 92% 29.91 in 10.0 mi ESE 8.1 mph - N/A   Overcast
7:55 AM 53.6 °F 50.9 °F 91% 29.92 in 10.0 mi ESE 9.2 mph - N/A   Overcast
8:15 AM 53.6 °F 50.5 °F 89% 29.92 in 10.0 mi ESE 11.5 mph - N/A   Overcast
8:16 AM 53.6 °F 50.5 °F 89% 29.92 in 10.0 mi ESE 11.5 mph - N/A   Overcast
8:35 AM 53.6 °F 50.5 °F 89% 29.92 in 10.0 mi ESE 11.5 mph - N/A   Overcast
8:36 AM 53.6 °F 50.5 °F 89% 29.92 in 10.0 mi ESE 10.4 mph - N/A   Overcast
8:55 AM 54.0 °F 50.9 °F 89% 29.93 in 10.0 mi ESE 9.2 mph - N/A   Overcast
9:15 AM 54.0 °F 50.9 °F 89% 29.94 in 10.0 mi ESE 11.5 mph 19.6 mph N/A   Overcast
9:35 AM 54.0 °F 50.9 °F 89% 29.94 in 10.0 mi ESE 9.2 mph 17.3 mph N/A   Overcast
9:36 AM 54.0 °F 51.1 °F 90% 29.94 in 10.0 mi ESE 10.4 mph 17.3 mph N/A   Overcast
9:55 AM 54.1 °F 51.8 °F 92% 29.93 in 10.0 mi ESE 9.2 mph - N/A   Overcast
9:56 AM 54.1 °F 51.8 °F 92% 29.93 in 10.0 mi ESE 9.2 mph - N/A   Overcast
10:15 AM 55.0 °F 52.2 °F 90% 29.92 in 10.0 mi ESE 11.5 mph - N/A   Mostly Cloudy
10:35 AM 55.9 °F 52.2 °F 87% 29.91 in 10.0 mi ESE 12.7 mph 18.4 mph N/A   Scattered Clouds
10:55 AM 56.3 °F 52.2 °F 86% 29.90 in 10.0 mi ESE 11.5 mph 19.6 mph N/A   Clear
10:56 AM 56.3 °F 52.2 °F 86% 29.90 in 10.0 mi ESE 13.8 mph 19.6 mph N/A   Clear
11:15 AM 56.5 °F 52.7 °F 87% 29.90 in 10.0 mi ESE 12.7 mph 18.4 mph N/A   Scattered Clouds
11:16 AM 56.5 °F 52.7 °F 87% 29.90 in 10.0 mi ESE 11.5 mph 18.4 mph N/A   Scattered Clouds
11:35 AM 57.2 °F 53.1 °F 86% 29.88 in 10.0 mi ESE 13.8 mph 21.9 mph N/A   Scattered Clouds
11:55 AM 58.1 °F 53.2 °F 84% 29.88 in 10.0 mi ESE 13.8 mph 23.0 mph N/A   Scattered Clouds
12:15 PM 58.1 °F 53.1 °F 83% 29.88 in 10.0 mi ESE 10.4 mph 18.4 mph N/A   Mostly Cloudy
12:35 PM 57.6 °F 53.8 °F 87% 29.88 in 10.0 mi ESE 8.1 mph - N/A   Overcast
12:36 PM 57.6 °F 53.8 °F 87% 29.88 in 10.0 mi ESE 9.2 mph - N/A   Overcast
12:55 PM 56.8 °F 55.0 °F 94% 29.87 in 10.0 mi ESE 8.1 mph - 0.01 in   Overcast
1:15 PM 56.8 °F 55.8 °F 96% 29.87 in 10.0 mi ESE 10.4 mph - 0.02 in   Overcast
1:35 PM 56.8 °F 56.3 °F 98% 29.86 in 7.0 mi ESE 8.1 mph - 0.03 in   Overcast
2:16 PM 57.2 °F 57.2 °F 100% 29.83 in 4.0 mi ESE 13.8 mph 21.9 mph 0.02 in   Overcast
2:35 PM 57.2 °F 57.2 °F 100% 29.81 in 3.0 mi ESE 16.1 mph 23.0 mph 0.04 in   Overcast
2:55 PM 57.2 °F 57.4 °F 100% 29.78 in 7.0 mi ESE 21.9 mph 29.9 mph 0.04 in   Overcast
3:15 PM 57.6 °F 57.7 °F 100% 29.73 in 7.0 mi ESE 24.2 mph 35.7 mph N/A   Overcast
3:16 PM 57.6 °F 57.7 °F 100% 29.73 in 7.0 mi ESE 26.5 mph 35.7 mph N/A   Overcast
3:35 PM 58.1 °F 58.1 °F 100% 29.75 in 10.0 mi SE 16.1 mph 26.5 mph N/A   Overcast
3:36 PM 58.1 °F 58.1 °F 100% 29.75 in 10.0 mi SE 17.3 mph 26.5 mph N/A   Overcast
3:55 PM 58.3 °F 58.3 °F 100% 29.77 in 10.0 mi ESE 13.8 mph 23.0 mph N/A   Overcast
4:15 PM 59.2 °F 59.0 °F 99% 29.78 in 10.0 mi ESE 15.0 mph 20.7 mph N/A   Overcast
4:35 PM 60.4 °F 58.3 °F 93% 29.78 in 7.0 mi ESE 15.0 mph 27.6 mph N/A   Overcast
4:36 PM 60.4 °F 58.3 °F 93% 29.78 in 7.0 mi SE 13.8 mph 27.6 mph N/A   Overcast
4:55 PM 61.0 °F 57.4 °F 88% 29.78 in 10.0 mi ESE 12.7 mph 23.0 mph N/A   Overcast
4:56 PM 61.0 °F 57.4 °F 88% 29.77 in 10.0 mi SE 13.8 mph 23.0 mph N/A   Overcast
5:15 PM 61.3 °F 56.3 °F 83% 29.78 in 10.0 mi SE 12.7 mph 24.2 mph N/A   Overcast
5:35 PM 61.3 °F 55.9 °F 82% 29.77 in 10.0 mi SE 10.4 mph 18.4 mph N/A   Overcast
5:55 PM 60.4 °F 56.7 °F 87% 29.77 in 10.0 mi ESE 10.4 mph 17.3 mph N/A   Overcast
5:56 PM 60.3 °F 56.7 °F 88% 29.77 in 10.0 mi ESE 10.4 mph 17.3 mph N/A   Overcast
6:15 PM 60.3 °F 57.2 °F 90% 29.77 in 10.0 mi ESE 8.1 mph - N/A   Overcast
6:16 PM 60.3 °F 57.2 °F 90% 29.77 in 10.0 mi ESE 8.1 mph - N/A   Overcast
6:35 PM 60.3 °F 57.4 °F 90% 29.76 in 10.0 mi ESE 9.2 mph - N/A   Overcast
6:55 PM 60.3 °F 57.6 °F 91% 29.76 in 10.0 mi SE 10.4 mph - N/A   Overcast
7:15 PM 60.4 °F 58.1 °F 92% 29.76 in 10.0 mi ESE 10.4 mph 16.1 mph N/A   Overcast
7:16 PM 60.4 °F 58.1 °F 92% 29.76 in 10.0 mi SE 11.5 mph 18.4 mph N/A   Overcast
7:35 PM 60.8 °F 58.3 °F 91% 29.75 in 10.0 mi ESE 11.5 mph 19.6 mph N/A   Overcast
7:36 PM 60.8 °F 58.3 °F 91% 29.75 in 10.0 mi ESE 12.7 mph 19.6 mph N/A   Overcast
7:55 PM 60.3 °F 59.0 °F 96% 29.75 in 3.0 mi ESE 10.4 mph 19.6 mph N/A   Overcast
8:15 PM 60.1 °F 59.5 °F 98% 29.74 in 10.0 mi SE 12.7 mph 21.9 mph N/A   Overcast
8:35 PM 60.1 °F 59.9 °F 99% 29.73 in 4.0 mi SE 10.4 mph 20.7 mph N/A   Overcast
8:36 PM 60.1 °F 59.9 °F 99% 29.73 in 4.0 mi SE 10.4 mph 20.7 mph N/A   Overcast
8:55 PM 60.1 °F 60.3 °F 100% 29.74 in 5.0 mi SE 10.4 mph 20.7 mph N/A   Overcast
8:56 PM 60.1 °F 60.3 °F 100% 29.74 in 5.0 mi SE 10.4 mph 16.1 mph N/A   Overcast
9:15 PM 60.3 °F 60.4 °F 100% 29.73 in 5.0 mi SE 12.7 mph 21.9 mph N/A   Overcast
9:35 PM 60.3 °F 60.6 °F 100% 29.73 in 2.5 mi SE 13.8 mph 19.6 mph N/A   Overcast
9:55 PM 60.4 °F 60.8 °F 100% 29.73 in 4.0 mi SE 15.0 mph 20.7 mph N/A   Overcast
9:56 PM 60.4 °F 60.8 °F 100% 29.73 in 4.0 mi SE 16.1 mph 20.7 mph N/A   Overcast
10:15 PM 60.8 °F 60.8 °F 100% 29.72 in 3.0 mi SE 12.7 mph 19.6 mph N/A   Overcast
10:16 PM 60.8 °F 60.8 °F 100% 29.72 in 3.0 mi SE 13.8 mph 19.6 mph N/A   Overcast
10:35 PM 60.8 °F 61.0 °F 100% 29.72 in 3.0 mi SE 8.1 mph 20.7 mph N/A   Overcast
10:55 PM 61.0 °F 61.2 °F 100% 29.71 in 4.0 mi SE 11.5 mph 19.6 mph N/A   Overcast
11:15 PM 61.0 °F 61.2 °F 100% 29.70 in 2.0 mi SE 12.7 mph 18.4 mph 0.01 in   Overcast
11:16 PM 61.0 °F 61.2 °F 100% 29.70 in 2.5 mi SE 12.7 mph 18.4 mph 0.01 in   Overcast
11:35 PM 61.0 °F 61.2 °F 100% 29.70 in 1.8 mi SE 10.4 mph 17.3 mph 0.01 in   Overcast
11:36 PM 61.0 °F 61.2 °F 100% 29.70 in 1.8 mi SE 12.7 mph 17.3 mph 0.01 in   Overcast
11:55 PM 53.6 °F 52.7 °F 97% 29.71 in 1.8 mi West 17.3 mph 25.3 mph 0.02 in   Overcast